Weather History for KUNI - October, 2012

Change the Weather History Date:

Sunday, October 21, 2012

  Actual Average (KPKB) Record (KPKB)
Temperature  
Mean Temperature 47 °F 54 °F  
Max Temperature 62 °F 65 °F 85 °F (1979)
Min Temperature 32 °F 43 °F 21 °F (1952)
Degree Days  
Heating Degree Days 18 12  
Cooling Degree Days 0 0  
Moisture  
Dew Point 38 °F    
Average Humidity 81    
Maximum Humidity 100    
Minimum Humidity 41    
Precipitation  
Precipitation 0.00 in 0.09 in 0.79 in (2005)
Sea Level Pressure  
Sea Level Pressure 30.11 in    
Wind  
Wind Speed 1 mph (WSW)    
Max Wind Speed 9 mph    
Max Gust Speed -    
Visibility 6 miles    
Events Fog    
T = Trace of Precipitation, MM = Missing Value Source: NWS Daily Summary

Daily Weather History Graph

Daily Weather History Graph

Search for Another Location

Airport or City:

Trip Planner

Search our weather history database for the weather conditions in past years. The results will help you decide how hot, cold, wet, or windy it might be!

Date:

Astronomy

Oct. 21, 2012 Rise Set
Actual Time 7:45 AM EDT 6:40 PM EDT
Civil Twilight 7:18 AM EDT 7:08 PM EDT
Nautical Twilight 6:46 AM EDT 7:39 PM EDT
Astronomical Twilight 6:15 AM EDT 8:10 PM EDT
Moon 2:04 PM EDT (10/21) No Moon Set
Length of Visible Light 11h 50m
Length of Day
10h 55m
Waxing Crescent, 45% of the Moon is Illuminated
Oct 21
Waxing Crescent
Oct 21
First Quarter
Oct 29
Full
Nov 6
Last Quarter
Nov 13
New

Hourly Weather History & Observations

Time (EDT) Temp. Windchill Dew Point Humidity Pressure Visibility Wind Dir Wind Speed Gust Speed Precip Events Conditions
12:15 AM 37.6 °F - 36.7 °F 97% 30.00 in 1.5 mi Calm Calm - N/A   Mostly Cloudy
12:55 AM 37.8 °F - 36.9 °F 97% 30.01 in 5.0 mi Calm Calm - N/A   Clear
1:15 AM 37.4 °F 34.9 °F 36.5 °F 97% 30.01 in 4.0 mi West 3.5 mph - N/A   Clear
1:35 AM 36.7 °F - 36.0 °F 97% 30.02 in 10.0 mi Calm Calm - N/A   Clear
1:55 AM 36.9 °F - 36.1 °F 97% 30.02 in 2.5 mi Calm Calm - N/A   Clear
2:15 AM 36.7 °F - 36.0 °F 97% 30.02 in 1.5 mi Calm Calm - N/A   Mist
2:35 AM 35.6 °F - 34.9 °F 97% 30.03 in 0.5 mi Calm Calm - N/A Fog Fog
2:55 AM 34.7 °F - 34.0 °F 97% 30.04 in 1.0 mi Calm Calm - N/A   Mist
3:15 AM 34.7 °F - 33.8 °F 97% 30.04 in 5.0 mi Calm Calm - N/A   Clear
3:35 AM 34.5 °F - 34.0 °F 98% 30.04 in 1.0 mi Calm Calm - N/A   Mist
3:55 AM 34.7 °F - 33.8 °F 97% 30.05 in 4.0 mi Calm Calm - N/A   Clear
4:15 AM 33.8 °F - 32.9 °F 96% 30.06 in 10.0 mi Calm Calm - N/A   Clear
4:35 AM 33.4 °F - 32.9 °F 98% 30.06 in 10.0 mi Calm Calm - N/A   Clear
4:55 AM 33.8 °F - 32.9 °F 96% 30.07 in 5.0 mi Calm Calm - N/A   Clear
5:15 AM 33.3 °F - 32.5 °F 97% 30.08 in 1.2 mi Calm Calm - N/A   Mist
5:35 AM 32.2 °F - 32.0 °F 99% 30.09 in 2.0 mi Calm Calm - N/A   Clear
5:55 AM 32.9 °F - 32.2 °F 97% 30.09 in 1.5 mi Calm Calm - N/A   Mist
6:15 AM 32.9 °F - 32.2 °F 97% 30.10 in 0.5 mi Calm Calm - N/A Fog Fog
6:35 AM 32.0 °F - 31.8 °F 99% 30.11 in 0.8 mi Calm Calm - N/A   Mist
6:55 AM 32.0 °F - 31.8 °F 99% 30.11 in 0.5 mi Calm Calm - N/A Fog Fog
7:35 AM 32.0 °F - 31.6 °F 99% 30.12 in 0.5 mi Calm Calm - N/A Fog Fog
7:55 AM 32.0 °F - 31.6 °F 99% 30.13 in 0.2 mi Calm Calm - N/A Fog Fog
8:15 AM 32.0 °F - 31.6 °F 99% 30.14 in 0.2 mi Calm Calm - N/A Fog Fog
8:35 AM 32.0 °F - 32.0 °F 100% 30.14 in 0.2 mi Calm Calm - N/A Fog Fog
8:55 AM 32.7 °F - 32.2 °F 98% 30.15 in 0.2 mi Calm Calm - N/A Fog Fog
9:15 AM 34.3 °F - 33.8 °F 98% 30.15 in 0.2 mi Calm Calm - N/A Fog Fog
9:35 AM 36.5 °F - 36.0 °F 98% 30.16 in 0.2 mi Calm Calm - N/A Fog Fog
9:55 AM 39.0 °F - 38.3 °F 97% 30.17 in 0.8 mi Calm Calm - N/A   Overcast
10:15 AM 40.5 °F 38.4 °F 39.7 °F 97% 30.17 in 4.0 mi West 3.5 mph - N/A   Scattered Clouds
10:35 AM 43.0 °F 41.3 °F 42.3 °F 97% 30.17 in 7.0 mi West 3.5 mph - N/A   Clear
10:55 AM 45.7 °F - 45.0 °F 97% 30.17 in 10.0 mi Calm Calm - N/A   Clear
11:15 AM 47.7 °F - 46.9 °F 97% 30.17 in 10.0 mi Calm Calm - N/A   Clear
11:35 AM 48.6 °F - 47.3 °F 95% 30.17 in 10.0 mi Calm Calm - N/A   Clear
12:35 PM 55.6 °F - 43.0 °F 63% 30.17 in 10.0 mi Calm Calm - N/A   Scattered Clouds
12:55 PM 55.4 °F - 41.9 °F 60% 30.16 in 10.0 mi WSW 3.5 mph - N/A   Scattered Clouds
1:15 PM 55.4 °F - 41.0 °F 58% 30.16 in 10.0 mi WSW 3.5 mph - N/A   Clear
1:35 PM 57.6 °F - 40.3 °F 53% 30.16 in 10.0 mi SW 9.2 mph - N/A   Scattered Clouds
1:55 PM 59.0 °F - 40.1 °F 50% 30.15 in 10.0 mi SW 9.2 mph - N/A   Clear
2:15 PM 58.8 °F - 40.3 °F 50% 30.14 in 10.0 mi South 5.8 mph - N/A   Clear
2:35 PM 59.0 °F - 39.6 °F 49% 30.14 in 10.0 mi Calm Calm - N/A   Clear
3:15 PM 60.4 °F - 39.7 °F 46% 30.12 in 10.0 mi West 4.6 mph - N/A   Clear
3:35 PM 60.8 °F - 38.8 °F 44% 30.11 in 10.0 mi Calm Calm - N/A   Clear
4:35 PM 61.9 °F - 38.7 °F 42% 30.11 in 10.0 mi Calm Calm - N/A   Clear
4:55 PM 62.6 °F - 39.2 °F 42% 30.11 in 10.0 mi Calm Calm - N/A   Clear
5:15 PM 62.2 °F - 38.1 °F 41% 30.11 in 10.0 mi SW 3.5 mph - N/A   Clear
5:35 PM 62.1 °F - 39.7 °F 44% 30.11 in 10.0 mi West 6.9 mph - N/A   Clear
5:55 PM 61.7 °F - 40.1 °F 45% 30.11 in 10.0 mi WSW 5.8 mph - N/A   Clear
6:15 PM 60.3 °F - 40.8 °F 49% 30.11 in 10.0 mi Calm Calm - N/A   Clear
6:35 PM 57.9 °F - 41.2 °F 54% 30.11 in 10.0 mi Calm Calm - N/A   Clear
6:55 PM 54.9 °F - 41.2 °F 60% 30.11 in 10.0 mi Calm Calm - N/A   Clear
7:35 PM 52.0 °F - 40.5 °F 65% 30.12 in 10.0 mi Calm Calm - N/A   Clear
7:55 PM 49.3 °F - 41.4 °F 74% 30.12 in 10.0 mi Calm Calm - N/A   Clear
8:15 PM 48.6 °F - 41.0 °F 75% 30.12 in 10.0 mi Calm Calm - N/A   Clear
8:35 PM 46.6 °F - 39.7 °F 77% 30.12 in 10.0 mi Calm Calm - N/A   Clear
8:55 PM 46.0 °F - 39.9 °F 79% 30.12 in 10.0 mi Calm Calm - N/A   Clear
9:15 PM 45.7 °F - 40.3 °F 81% 30.12 in 10.0 mi Calm Calm - N/A   Clear
9:35 PM 44.8 °F - 40.1 °F 84% 30.13 in 10.0 mi Calm Calm - N/A   Clear
9:55 PM 44.2 °F - 39.4 °F 83% 30.13 in 10.0 mi Calm Calm - N/A   Clear
10:15 PM 43.3 °F - 39.4 °F 86% 30.13 in 10.0 mi Calm Calm - N/A   Clear
10:35 PM 42.3 °F - 39.2 °F 89% 30.14 in 10.0 mi Calm Calm - N/A   Clear
11:15 PM 41.9 °F - 38.7 °F 88% 30.14 in 10.0 mi Calm Calm - N/A   Clear
11:35 PM 41.2 °F - 38.3 °F 89% 30.14 in 10.0 mi Calm Calm - N/A   Clear
11:55 PM 40.5 °F - 37.6 °F 89% 30.14 in 10.0 mi Calm Calm - N/A   Clear